CAPE
0 0 0 24 15 12 350 491 354 478 1429 1397 1247 1471 1602 1579 1388 1259 1212 1246 1175 1195 991 729 596 389 338 263 202 189 200 269
0 0 11 133 197 277 334 424 715 766 203 1327 1859 1494 1347 1554 1559 1456 1284 1164 1178 1116 1114 892 768 520 426 386 281 220 316 474
0 0 0 0 15 246 340 466 606 893 974 268 630 1808 1701 1435 1459 1421 1360 1238 1091 1167 1223 842 890 640 505 169 135 68 135 257
0 0 0 0 0 2 306 412 443 691 1222 1158 451 77 2002 1789 1528 1313 1298 1289 1228 1107 1245 1157 824 834 449 222 200 55 49 70
0 0 0 0 0 0 15 337 304 390 930 1446 1339 693 538 2048 1726 1310 1233 1302 1179 1226 1183 1240 926 919 634 342 216 204 143 273
0 0 0 0 0 0 0 103 285 262 129 392 1883 1758 969 1456 1656 1179 1410 1487 1301 1220 1164 1043 929 944 590 385 398 317 589 893
0 0 0 0 0 0 0 7 177 69 2 12 296 1736 1268 1550 1971 1648 1663 1837 1603 1254 1208 1126 1033 980 732 778 630 841 722 1081
0 0 0 0 0 0 0 0 98 4 4 5 6 19 1055 1549 1842 1741 1820 1790 1648 1547 1291 1093 873 737 369 194 184 19 251 737
0 0 0 0 0 0 0 0 44 2 5 4 5 5 7 11 21 43 31 30 23 5 31 54 5 0 0 0 0 0 0 0
0 0 0 0 0 0 0 0 28 2 5 4 3 4 3 5 4 5 6 3 3 3 4 4 4 4 1 0 0 0 0 0
0 0 0 0 0 0 0 0 5 2 4 3 3 3 2 3 4 5 5 4 4 4 3 5 6 6 2 0 2 0 0 0
0 0 0 0 0 0 0 0 1 1 1 3 4 4 0 0 2 3 2 3 1 1 0 2 2 1 1 0 0 0 0 0
0 0 0 0 0 0 0 0 7 5 1 2 2 3 2 3 3 0 2 2 2 0 0 0 0 0 0 0 0 0 0 0
13 0 0 0 0 0 0 1 11 5 2 1 1 2 2 0 1 0 0 1 2 2 1 0 0 0 0 0 0 0 0 0
0 0 2 6 0 0 0 16 33 1 3 2 2 2 2 2 1 0 0 1 1 1 1 2 2 1 0 0 0 0 0 2
0 6 18 26 2 0 0 3 1 2 2 3 2 1 1 3 2 2 2 2 1 2 2 2 1 0 0 0 0 0 0 0
0 7 21 32 11 0 0 11 4 1 2 2 1 2 2 3 3 3 3 2 1 2 2 2 1 1 0 0 0 0 0 0
3 9 43 37 17 2 1 4 2 2 2 2 3 3 4 3 2 1 1 0 0 1 1 0 0 1 0 0 0 0 0 0
0 14 51 22 10 3 2 2 2 3 3 4 4 3 1 1 1 1 2 1 1 0 0 0 0 0 0 0 0 0 0 0
CIN
-0 -0 -0 -124 -151 -244 -165 -166 -223 -190 -68 -136 -199 -163 -176 -169 -211 -213 -202 -220 -247 -213 -191 -189 -166 -172 -139 -137 -132 -100 -82 -71
-0 -0 -228 -210 -184 -206 -217 -205 -191 -176 -253 -85 -94 -194 -199 -169 -187 -188 -202 -202 -214 -237 -239 -197 -205 -215 -183 -182 -186 -143 -99 -52
-0 -0 -0 -0 -223 -217 -205 -192 -209 -197 -180 -245 -150 -81 -135 -195 -194 -199 -190 -182 -212 -228 -237 -264 -220 -224 -231 -215 -201 -208 -186 -134
-0 -0 -0 -0 -0 -114 -187 -181 -217 -186 -109 -136 -249 -406 -52 -109 -187 -201 -182 -159 -184 -201 -211 -205 -250 -210 -270 -266 -232 -218 -261 -179
-0 -0 -0 -0 -0 -0 -54 -162 -222 -239 -144 -78 -99 -254 -263 -43 -81 -113 -119 -106 -163 -183 -176 -177 -212 -193 -222 -289 -306 -295 -247 -155
-0 -0 -0 -0 -0 -0 -0 -228 -193 -256 -370 -261 -43 -55 -211 -105 -40 -83 -70 -43 -127 -185 -195 -182 -181 -149 -235 -235 -188 -215 -89 -25
-0 -0 -0 -0 -0 -0 -0 -72 -208 -341 -0 -424 -279 -33 -120 -81 -24 -34 -30 -27 -63 -158 -131 -127 -137 -127 -162 -114 -95 -40 -37 -13
-0 -0 -0 -0 -0 -0 -0 -0 -212 -73 -0 -0 -0 -148 -81 -16 -2 -11 -6 -22 -35 -42 -77 -115 -136 -177 -334 -64 -55 -147 -181 -0
-0 -0 -0 -0 -0 -0 -0 -0 -238 -0 -0 -0 -0 -0 -0 -69 -56 -641 -531 -52 -63 -0 -660 -557 -188 -0 -0 -0 -0 -0 -0 -0
-0 -0 -0 -0 -0 -0 -0 -0 -208 -0 -0 -0 -0 -0 -0 -0 -0 -0 -0 -0 -0 -0 -0 -0 -0 -0 -0 -0 -0 -0 -0 -0
-0 -0 -0 -0 -0 -0 -0 -0 -66 -0 -0 -0 -0 -0 -0 -0 -0 -0 -0 -0 -0 -0 -0 -0 -0 -0 -0 -0 -0 -0 -0 -0
-0 -0 -0 -0 -0 -0 -0 -0 -1 -0 -0 -0 -0 -0 -0 -0 -0 -0 -0 -0 -0 -0 -0 -0 -0 -0 -0 -0 -0 -0 -0 -0
-2 -2 -0 -0 -0 -0 -0 -0 -1 -0 -0 -0 -0 -0 -0 -0 -0 -0 -0 -0 -0 -0 -0 -0 -0 -0 -0 -0 -0 -0 -0 -0
-7 -0 -0 -0 -0 -0 -0 -1 -2 -11 -0 -0 -0 -0 -0 -0 -0 -0 -0 -0 -0 -0 -0 -0 -0 -0 -0 -0 -0 -0 -0 -0
-9 -4 -4 -4 -0 -0 -0 -2 -2 -0 -0 -0 -0 -0 -0 -0 -0 -0 -0 -0 -0 -0 -0 -0 -0 -0 -0 -0 -0 -0 -0 -0
-13 -9 -5 -4 -2 -0 -0 -0 -0 -0 -0 -0 -0 -0 -0 -0 -0 -0 -0 -0 -0 -0 -0 -0 -0 -0 -0 -0 -0 -0 -0 -0
-10 -9 -5 -3 -2 -2 -0 -0 -0 -0 -0 -0 -0 -0 -0 -0 -0 -0 -0 -0 -0 -0 -0 -0 -0 -0 -0 -0 -0 -0 -0 -0
-5 -7 -5 -4 -3 -1 -1 -0 -0 -0 -0 -0 -0 -0 -0 -0 -0 -0 -0 -0 -0 -0 -0 -0 -0 -0 -0 -0 -0 -0 -0 -0
-0 -4 -4 -3 -2 -2 -1 -0 -0 -0 -0 -0 -0 -0 -0 -0 -0 -0 -0 -0 -0 -0 -0 -0 -0 -0 -0 -0 -0 -0 -0 -0
Wind_Speed
33 32 32 32 30 30 30 30 32 31 23 21 22 25 25 26 24 23 22 22 22 20 20 19 18 17 17 17 18 19 21 24
32 34 34 33 32 32 32 33 33 33 35 30 29 28 30 29 28 27 26 26 25 24 24 23 22 21 21 21 18 15 16 19
32 34 35 35 35 35 35 35 36 37 37 39 39 35 32 30 31 30 28 28 28 28 27 26 25 24 24 23 23 21 23 20
34 36 36 36 37 38 38 38 40 40 41 42 43 45 38 35 32 33 33 32 30 30 29 29 27 28 27 27 25 26 24 20
34 36 37 38 39 39 40 40 41 41 43 44 44 46 48 39 36 35 33 29 30 29 29 29 30 31 31 30 29 28 27 24
35 36 37 37 39 40 42 41 42 43 44 44 46 47 47 45 40 39 36 29 26 25 26 30 31 30 30 30 28 28 28 27
35 36 37 37 40 41 43 43 43 43 44 44 45 47 46 45 39 38 36 30 24 23 25 26 25 25 26 27 28 27 27 27
37 39 41 42 43 43 45 44 44 44 43 42 42 42 42 41 40 38 39 30 29 26 26 26 25 25 24 20 21 24 29 30
40 42 43 44 45 46 45 45 45 45 42 41 39 37 35 30 30 29 28 29 28 27 23 19 18 16 14 14 16 18 20 31
44 45 44 45 46 47 46 46 43 43 42 39 36 33 32 28 27 24 23 22 22 21 21 20 17 17 15 14 15 15 17 29
48 47 47 46 46 46 46 44 41 39 37 36 31 29 29 26 24 23 21 20 19 18 19 20 16 15 13 12 13 15 17 17
50 47 47 47 46 46 46 43 41 35 34 32 28 25 24 26 24 22 21 17 17 16 16 22 14 13 12 11 13 14 14 12
49 45 46 45 45 45 44 42 41 32 30 28 27 26 25 25 24 26 25 19 17 15 14 12 17 17 15 15 14 12 10 9
44 42 43 44 44 44 44 42 41 29 28 26 25 25 24 25 25 27 23 23 22 17 16 17 17 19 17 14 13 12 14 15
36 38 40 42 42 43 43 42 32 28 27 24 23 23 22 21 22 23 23 21 20 19 18 17 16 18 17 16 15 14 16 17
33 37 39 41 41 41 41 38 35 30 26 22 20 19 19 20 21 23 24 21 19 19 18 18 18 17 18 18 17 18 17 17
31 37 39 40 40 40 40 37 33 28 23 20 18 18 18 18 19 22 23 21 18 18 18 18 17 19 21 21 19 18 20 21
34 38 38 39 38 39 38 35 29 26 22 19 17 16 16 17 18 21 21 21 20 20 20 20 19 20 21 22 23 20 22 24
36 37 37 37 37 37 34 31 28 25 22 19 16 15 15 16 17 19 20 22 22 21 21 22 22 23 24 25 23 21 22 23
Wind_Direction
328 327 326 325 324 318 312 309 301 300 291 286 283 282 273 272 261 256 252 248 240 244 250 250 251 251 258 262 270 279 284 289
328 326 324 322 322 319 314 307 304 302 295 292 288 285 284 279 272 266 260 258 251 246 252 254 250 249 256 258 256 266 276 287
333 333 329 323 320 317 314 309 304 302 298 294 289 288 287 282 279 274 266 261 255 251 251 252 250 255 251 249 250 259 265 266
334 332 332 330 325 318 314 311 308 304 300 297 293 287 284 284 283 279 275 266 259 254 252 255 254 257 256 257 253 256 263 276
338 336 334 332 328 326 318 314 312 310 305 299 295 289 283 284 283 283 282 269 256 255 255 256 260 263 261 259 260 264 270 271
338 339 339 338 336 329 323 319 315 313 310 306 300 293 288 283 282 282 281 276 256 254 257 261 260 262 262 263 266 262 268 273
338 339 339 339 338 336 332 325 320 318 315 311 306 299 292 283 280 279 280 278 268 259 264 261 260 260 262 267 268 269 267 270
334 333 333 332 331 330 331 329 325 321 318 316 314 308 300 287 280 280 277 274 272 272 272 267 263 269 271 273 278 285 282 270
329 328 328 327 327 326 325 324 324 324 321 318 318 318 312 303 294 289 285 277 280 280 277 271 265 264 267 278 280 290 300 307
325 326 326 325 324 323 322 321 324 326 323 323 321 323 321 320 308 301 296 293 289 283 287 284 272 273 275 282 284 288 293 308
323 322 322 323 323 322 322 321 324 328 330 329 328 332 327 325 328 322 310 307 303 300 297 294 291 289 290 294 302 309 308 309
319 319 319 320 321 320 320 321 320 326 328 331 331 337 344 343 334 331 327 322 325 319 310 307 295 303 314 313 316 314 304 321
316 317 318 319 321 321 321 320 317 322 326 326 324 331 332 336 339 338 325 331 335 326 328 324 338 331 328 323 322 323 327 334
312 315 318 319 321 322 323 322 316 318 321 321 320 325 334 335 337 344 324 329 330 326 328 325 335 331 332 340 341 331 329 328
314 317 319 322 323 325 326 325 328 324 321 320 318 322 335 346 356 1 351 342 328 337 340 332 329 337 333 339 345 337 335 327
322 322 323 322 323 325 329 329 328 325 322 319 320 327 335 346 351 353 357 347 343 342 337 342 335 342 340 334 335 342 333 320
331 328 325 323 323 324 326 329 330 332 329 324 323 328 334 342 349 359 7 3 2 353 349 348 344 345 336 336 335 331 324 321
332 327 325 325 325 324 327 329 332 337 336 331 328 331 338 338 342 352 3 2 350 348 346 348 344 339 332 331 328 330 320 323
329 325 324 324 324 325 330 333 332 332 335 333 330 335 340 346 344 353 350 1 349 347 349 347 344 342 337 337 332 336 332 334